Location: �clusier
(49.9361°N, 2.7869°E)
Time: 05:33:44
(UTC+00:00)

Cosmos 2016 Rocket - Pass Details

Date: 30 October 2021
Orbit: 947 x 1000 km, 83.0° (Epoch: 05 December)

Event Time Altitude Azimuth Distance (km) Brightness Sun altitude
Rises 19:56:09 0° 211° (SSW) 3,643 7.1 -33.5°
Reaches altitude 10° 19:58:48 10° 218° (SW) 2,693 6.5 -33.9°
Maximum altitude 20:04:35 42° 288° (WNW) 1,340 5.0 -34.8°
Drops below altitude 10° 20:10:23 10° 359° (N) 2,685 6.5 -35.6°
Sets 20:13:02 0° 6° (N) 3,632 7.2 -36.0°
